Regional Weather Roundup
Issued by NWS Cleveland, OH

Home | Current Version | Previous Version | Graphics & Text | Print | Product List | Glossary On
Versions: 1 2 3 4 5 6 7 8 9 10 11 12 13 14 15 16 17 18 19 20 21 22 23 24 25 26 27 28 29 30 31 32 33 34 35 36 37 38 39 40 41 42 43 44 45 46 47 48 49 50
000
ASUS41 KCLE 160202
RWRCLE
OHIO REGIONAL WEATHER ROUNDUP
NATIONAL WEATHER SERVICE CLEVELAND, OH
1000 PM EDT MON SEP 15 2014

NOTE: "FAIR" INDICATES FEW OR NO CLOUDS BELOW 12,000 FEET WITH NO
SIGNIFICANT WEATHER AND/OR OBSTRUCTIONS TO VISIBILITY.

OHZ001>008-015>018-024>027-034-035-043-044-160300-
   NORTHWEST OHIO

CITY           SKY/WX    TMP DP  RH WIND       PRES   REMARKS
DEFIANCE       LGT RAIN  55  53  93 CALM      30.12R
FINDLAY        LGT RAIN  56  53  90 NW5       30.10R FOG
TOLEDO EXPRESS CLOUDY    53  52  96 W3        30.09S
TOLEDO EXEC    LGT RAIN  55  52  89 NW5       30.10S
LIMA           LGT RAIN  56  54  93 N5        30.11R FOG
$$

OHZ009>014-019>023-028>033-038-089-160300-
   NORTHEAST OHIO

CITY           SKY/WX    TMP DP  RH WIND       PRES   REMARKS
CLE-HOPKINS    RAIN      57  55  93 NW7       30.11R FOG
CLE-LAKEFRONT  RAIN      58  56  93 N15       30.07F
CUY CO. ARPT   LGT RAIN  57  57 100 NW8       30.10R FOG
LORAIN-ELYRIA  LGT RAIN  59  54  83 N7        30.10S
ASHTABULA      RAIN      56  54  93 NW5       30.09S FOG
AKRON-CANTON   CLOUDY    59  54  83 N8        30.07R
WOOSTER        CLOUDY    58  54  86 N8        30.09R
MANSFIELD      CLOUDY    56  55  97 NW7       30.10R
YOUNGSTOWN     LGT RAIN  58  54  86 N6        30.07R
$$

OHZ042-051>053-060>062-070>072-077>081-160300-
  SOUTHWEST OHIO

CITY           SKY/WX    TMP DP  RH WIND       PRES   REMARKS
CINC-COVINGTON LGT RAIN  60  57  89 W3        30.09R
CINC-LUNKEN    CLOUDY    59  58  96 CALM      30.10S
HAMILTON       CLOUDY    59  57  93 W3        30.11R
DAYTON         CLOUDY    60  56  86 W8        30.11R
WRIGHT-PAT AFB CLOUDY    61  56  83 W3        30.10R
DAYTON GENERAL CLOUDY    59  56  89 W6        30.10R
WILMINGTON     CLOUDY    58  54  86 SW5       30.10R
$$

OHZ036-037-039>041-045>050-054>059-063>069-073>076-082>088-160300-
  CENTRAL AND SOUTHEAST OHIO

CITY           SKY/WX    TMP DP  RH WIND       PRES   REMARKS
COLUMBUS       CLOUDY    66  50  56 NW7       30.07S
OSU AIRPORT    CLOUDY    62  52  69 NW7       30.07S
BOLTON FIELD   CLOUDY    60  55  82 CALM      30.08F
RICKENBACK AFB MOCLDY    60  52  74 NW3       30.07S
NEWARK         CLOUDY    59  53  80 W3        30.07R
MARION         RAIN      56  54  93 NW6       30.11R FOG
LANCASTER      CLOUDY    61  53  75 NW5       30.08R
ZANESVILLE     CLOUDY    59  51  75 W3        30.07R
NEW PHILLY     CLOUDY    59  55  87 CALM      30.07R
$$



USA.gov is the U.S. government's official web portal to all federal, state and local government web resources and services.